Time,TemperatureF,DewpointF,PressureIn,WindDirection,WindDirectionDegrees,WindSpeedMPH,WindSpeedGustMPH,Humidity,HourlyPrecipIn,Conditions,Clouds,dailyrainin,SoftwareType,DateUTC
2013-05-07 00:00:00,46.8,41.9,29.92,NW,323,1.0,2.0,83,0.00,CLR,,0.00,WeatherDisplay:10.37,2013-05-06 23:00:00,
2013-05-07 00:10:00,46.1,41.2,29.92,NE,45,0.0,3.0,83,0.00,CLR,,0.00,WeatherDisplay:10.37,2013-05-06 23:10:00,
2013-05-07 00:20:00,45.0,40.1,29.92,NNW,329,1.0,3.0,83,0.00,CLR,,0.00,WeatherDisplay:10.37,2013-05-06 23:20:00,
2013-05-07 00:30:00,44.0,39.2,29.92,WNW,292,0.0,1.0,83,0.00,CLR,,0.00,WeatherDisplay:10.37,2013-05-06 23:30:00,
2013-05-07 00:40:00,43.4,38.9,29.92,NNE,13,1.0,3.0,84,0.00,CLR,,0.00,WeatherDisplay:10.37,2013-05-06 23:40:00,
2013-05-07 00:50:00,42.8,38.3,29.92,East,83,1.0,2.0,84,0.00,CLR,,0.00,WeatherDisplay:10.37,2013-05-06 23:50:00,
2013-05-07 01:00:00,41.9,37.1,29.92,NE,54,0.0,1.0,83,0.00,CLR,,0.00,WeatherDisplay:10.37,2013-05-07 00:00:00,
2013-05-07 01:10:00,41.4,36.9,29.92,West,270,0.0,1.0,84,0.00,CLR,,0.00,WeatherDisplay:10.37,2013-05-07 00:10:00,
2013-05-07 01:20:00,41.0,36.5,29.92,West,270,0.0,1.0,84,0.00,CLR,,0.00,WeatherDisplay:10.37,2013-05-07 00:20:00,
2013-05-07 01:30:00,40.6,36.2,29.92,West,270,1.0,3.0,84,0.00,CLR,,0.00,WeatherDisplay:10.37,2013-05-07 00:30:00,
2013-05-07 01:40:00,40.1,36.0,29.92,West,270,0.0,2.0,85,0.00,CLR,,0.00,WeatherDisplay:10.37,2013-05-07 00:40:00,
2013-05-07 01:50:00,39.7,35.2,29.92,West,270,0.0,2.0,84,0.00,CLR,,0.00,WeatherDisplay:10.37,2013-05-07 00:50:00,
2013-05-07 02:00:00,39.2,34.8,29.92,West,270,0.0,0.0,84,0.00,CLR,,0.00,WeatherDisplay:10.37,2013-05-07 01:00:00,
2013-05-07 02:10:00,38.7,34.2,29.92,West,270,1.0,2.0,84,0.00,CLR,,0.00,WeatherDisplay:10.37,2013-05-07 01:10:00,
2013-05-07 02:20:00,37.8,33.4,29.92,West,270,0.0,2.0,84,0.00,CLR,,0.00,WeatherDisplay:10.37,2013-05-07 01:20:00,
2013-05-07 02:30:00,37.9,33.5,29.92,West,261,2.0,4.0,84,0.00,CLR,,0.00,WeatherDisplay:10.37,2013-05-07 01:30:00,
2013-05-07 02:40:00,37.8,33.4,29.91,West,270,2.0,3.0,84,0.00,CLR,,0.00,WeatherDisplay:10.37,2013-05-07 01:40:00,
2013-05-07 02:50:00,36.9,32.5,29.92,WSW,248,0.0,3.0,84,0.00,CLR,,0.00,WeatherDisplay:10.37,2013-05-07 01:50:00,
2013-05-07 03:00:00,36.3,31.9,29.91,WSW,248,0.0,0.0,84,0.00,CLR,,0.00,WeatherDisplay:10.37,2013-05-07 02:00:00,
2013-05-07 03:10:00,35.7,31.3,29.92,WSW,248,0.0,2.0,84,0.00,CLR,,0.00,WeatherDisplay:10.37,2013-05-07 02:10:00,
2013-05-07 03:20:00,35.6,31.2,29.91,WSW,248,0.0,2.0,84,0.00,CLR,,0.00,WeatherDisplay:10.37,2013-05-07 02:20:00,
2013-05-07 03:30:00,35.2,30.9,29.91,WSW,248,0.0,0.0,84,0.00,CLR,,0.00,WeatherDisplay:10.37,2013-05-07 02:30:00,
2013-05-07 03:40:00,35.1,30.7,29.92,WSW,248,0.0,1.0,84,0.00,CLR,,0.00,WeatherDisplay:10.37,2013-05-07 02:40:00,
2013-05-07 03:50:00,35.2,30.9,29.91,WSW,248,2.0,4.0,84,0.00,CLR,,0.00,WeatherDisplay:10.37,2013-05-07 02:50:00,
2013-05-07 04:00:00,36.0,31.9,29.91,WSW,248,1.0,5.0,85,0.00,CLR,,0.00,WeatherDisplay:10.37,2013-05-07 03:00:00,
2013-05-07 04:10:00,36.9,32.8,29.91,WSW,251,5.0,5.0,85,0.00,CLR,,0.00,WeatherDisplay:10.37,2013-05-07 03:10:00,
2013-05-07 04:20:00,37.0,33.2,29.91,West,261,3.0,4.0,86,0.00,CLR,,0.00,WeatherDisplay:10.37,2013-05-07 03:20:00,
2013-05-07 04:30:00,37.0,33.2,29.91,WSW,248,2.0,4.0,86,0.00,CLR,,0.00,WeatherDisplay:10.37,2013-05-07 03:30:00,
2013-05-07 04:40:00,36.5,32.7,29.91,WSW,254,2.0,3.0,86,0.00,CLR,,0.00,WeatherDisplay:10.37,2013-05-07 03:40:00,
2013-05-07 04:50:00,36.0,31.9,29.91,West,270,1.0,1.0,85,0.00,CLR,,0.00,WeatherDisplay:10.37,2013-05-07 03:50:00,
2013-05-07 05:00:00,35.4,31.4,29.92,West,270,1.0,3.0,85,0.00,CLR,,0.00,WeatherDisplay:10.37,2013-05-07 04:00:00,
2013-05-07 05:10:00,35.2,31.2,29.92,West,270,1.0,3.0,85,0.00,CLR,,0.00,WeatherDisplay:10.37,2013-05-07 04:10:00,
2013-05-07 05:20:00,34.6,30.6,29.92,West,270,0.0,2.0,85,0.00,CLR,,0.00,WeatherDisplay:10.37,2013-05-07 04:20:00,
2013-05-07 05:30:00,34.0,29.9,29.92,West,270,0.0,0.0,85,0.00,CLR,,0.00,WeatherDisplay:10.37,2013-05-07 04:30:00,
2013-05-07 05:40:00,34.0,29.9,29.92,West,270,0.0,0.0,85,0.00,CLR,,0.00,WeatherDisplay:10.37,2013-05-07 04:40:00,
2013-05-07 05:50:00,33.9,29.8,29.92,West,270,0.0,2.0,85,0.00,CLR,,0.00,WeatherDisplay:10.37,2013-05-07 04:50:00,
2013-05-07 06:00:00,33.8,29.8,29.93,West,270,0.0,0.0,85,0.00,CLR,,0.00,WeatherDisplay:10.37,2013-05-07 05:00:00,
2013-05-07 06:10:00,33.5,29.4,29.93,West,270,0.0,0.0,85,0.00,CLR,,0.00,WeatherDisplay:10.37,2013-05-07 05:10:00,
2013-05-07 06:20:00,34.2,30.4,29.93,West,270,0.0,3.0,86,0.00,CLR,,0.00,WeatherDisplay:10.37,2013-05-07 05:20:00,
2013-05-07 06:30:00,34.5,30.8,29.93,West,270,0.0,3.0,86,0.00,CLR,,0.00,WeatherDisplay:10.37,2013-05-07 05:30:00,
2013-05-07 06:40:00,36.2,33.0,29.93,West,270,0.0,1.0,88,0.00,CLR,,0.00,WeatherDisplay:10.37,2013-05-07 05:40:00,
2013-05-07 06:50:00,37.4,34.2,29.93,West,270,0.0,1.0,88,0.00,CLR,,0.00,WeatherDisplay:10.37,2013-05-07 05:50:00,
2013-05-07 07:00:00,38.3,35.3,29.93,West,270,1.0,2.0,89,0.00,CLR,,0.00,WeatherDisplay:10.37,2013-05-07 06:00:00,
2013-05-07 07:10:00,39.4,36.4,29.93,West,270,1.0,2.0,89,0.00,CLR,,0.00,WeatherDisplay:10.37,2013-05-07 06:10:00,
2013-05-07 07:20:00,41.9,39.5,29.93,West,270,1.0,1.0,91,0.00,CLR,,0.00,WeatherDisplay:10.37,2013-05-07 06:20:00,
2013-05-07 07:30:00,46.4,44.2,29.93,West,270,0.0,2.0,92,0.00,CLR,,0.00,WeatherDisplay:10.37,2013-05-07 06:30:00,
2013-05-07 07:40:00,52.2,49.9,29.93,West,270,0.0,0.0,92,0.00,CLR,,0.00,WeatherDisplay:10.37,2013-05-07 06:40:00,
2013-05-07 07:50:00,53.1,50.2,29.93,WNW,291,2.0,2.0,90,0.00,CLR,,0.00,WeatherDisplay:10.37,2013-05-07 06:50:00,
2013-05-07 08:00:00,54.6,51.1,29.93,ENE,68,0.0,2.0,88,0.00,CLR,,0.00,WeatherDisplay:10.37,2013-05-07 07:00:00,
2013-05-07 08:10:00,58.0,52.2,29.93,ENE,76,0.0,1.0,81,0.00,CLR,,0.00,WeatherDisplay:10.37,2013-05-07 07:10:00,
2013-05-07 08:20:00,60.4,51.0,29.94,East,80,1.0,2.0,71,0.00,CLR,,0.00,WeatherDisplay:10.37,2013-05-07 07:20:00,
2013-05-07 08:30:00,62.3,50.0,29.93,East,86,0.0,2.0,64,0.00,CLR,,0.00,WeatherDisplay:10.37,2013-05-07 07:30:00,
2013-05-07 08:40:00,64.0,48.0,29.93,East,89,1.0,3.0,56,0.00,CLR,,0.00,WeatherDisplay:10.37,2013-05-07 07:40:00,
2013-05-07 08:50:00,64.9,46.4,29.93,East,92,2.0,3.0,51,0.00,CLR,,0.00,WeatherDisplay:10.37,2013-05-07 07:50:00,
2013-05-07 09:00:00,65.5,44.7,29.93,East,80,2.0,5.0,47,0.00,CLR,,0.00,WeatherDisplay:10.37,2013-05-07 08:00:00,
2013-05-07 09:10:00,65.6,44.2,29.93,East,94,2.0,6.0,46,0.00,CLR,,0.00,WeatherDisplay:10.37,2013-05-07 08:10:00,
2013-05-07 09:20:00,65.3,42.8,29.93,East,83,3.0,7.0,44,0.00,CLR,,0.00,WeatherDisplay:10.37,2013-05-07 08:20:00,
2013-05-07 09:30:00,64.5,41.5,29.93,East,90,7.0,7.0,43,0.00,CLR,,0.00,WeatherDisplay:10.37,2013-05-07 08:30:00,
2013-05-07 09:40:00,64.3,41.9,29.93,East,82,3.0,8.0,44,0.00,CLR,,0.00,WeatherDisplay:10.37,2013-05-07 08:40:00,
2013-05-07 09:50:00,65.5,43.0,29.93,East,100,2.0,7.0,44,0.00,CLR,,0.00,WeatherDisplay:10.37,2013-05-07 08:50:00,
2013-05-07 10:00:00,66.6,42.7,29.93,East,86,5.0,7.0,42,0.00,CLR,,0.00,WeatherDisplay:10.37,2013-05-07 09:00:00,
2013-05-07 10:10:00,66.0,40.9,29.93,ENE,76,7.0,8.0,40,0.00,CLR,,0.00,WeatherDisplay:10.37,2013-05-07 09:10:00,
2013-05-07 10:20:00,64.8,41.1,29.93,East,95,7.0,10.0,42,0.00,CLR,,0.00,WeatherDisplay:10.37,2013-05-07 09:20:00,
2013-05-07 10:30:00,66.6,44.0,29.93,ESE,104,6.0,9.0,44,0.00,CLR,,0.00,WeatherDisplay:10.37,2013-05-07 09:30:00,
2013-05-07 10:40:00,66.0,40.9,29.93,East,82,7.0,12.0,40,0.00,CLR,,0.00,WeatherDisplay:10.37,2013-05-07 09:40:00,
2013-05-07 10:50:00,65.6,41.8,29.92,ENE,72,8.0,11.0,42,0.00,CLR,,0.00,WeatherDisplay:10.37,2013-05-07 09:50:00,
2013-05-07 11:00:00,66.7,43.5,29.93,East,79,3.0,6.0,43,0.00,CLR,,0.00,WeatherDisplay:10.37,2013-05-07 10:00:00,
2013-05-07 11:10:00,66.6,42.1,29.93,ENE,75,2.0,9.0,41,0.00,CLR,,0.00,WeatherDisplay:10.37,2013-05-07 10:10:00,
2013-05-07 11:20:00,66.9,42.4,29.93,East,91,7.0,12.0,41,0.00,CLR,,0.00,WeatherDisplay:10.37,2013-05-07 10:20:00,
2013-05-07 11:30:00,65.8,42.1,29.92,East,98,3.0,13.0,42,0.00,CLR,,0.00,WeatherDisplay:10.37,2013-05-07 10:30:00,
2013-05-07 11:40:00,67.5,43.6,29.92,ESE,115,1.0,6.0,42,0.00,CLR,,0.00,WeatherDisplay:10.37,2013-05-07 10:40:00,
2013-05-07 11:50:00,68.1,42.9,29.92,East,100,5.0,13.0,40,0.00,CLR,,0.00,WeatherDisplay:10.37,2013-05-07 10:50:00,
2013-05-07 12:00:00,69.1,43.1,29.92,ESE,121,3.0,8.0,39,0.00,CLR,,0.00,WeatherDisplay:10.37,2013-05-07 11:00:00,
2013-05-07 12:10:00,69.4,44.1,29.91,ESE,115,2.0,10.0,40,0.00,CLR,,0.00,WeatherDisplay:10.37,2013-05-07 11:10:00,
2013-05-07 12:20:00,69.6,43.6,29.91,East,99,1.0,7.0,39,0.00,CLR,,0.00,WeatherDisplay:10.37,2013-05-07 11:20:00,
2013-05-07 12:30:00,69.1,43.7,29.91,East,84,8.0,11.0,40,0.00,CLR,,0.00,WeatherDisplay:10.37,2013-05-07 11:30:00,
2013-05-07 12:40:00,67.0,43.2,29.91,ENE,76,9.0,13.0,42,0.00,CLR,,0.00,WeatherDisplay:10.37,2013-05-07 11:40:00,
2013-05-07 12:50:00,66.9,43.7,29.91,East,80,8.0,12.0,43,0.00,CLR,,0.00,WeatherDisplay:10.37,2013-05-07 11:50:00,
2013-05-07 13:00:00,68.2,44.8,29.91,East,101,8.0,12.0,43,0.00,CLR,,0.00,WeatherDisplay:10.37,2013-05-07 12:00:00,
2013-05-07 13:10:00,69.3,45.2,29.91,ESE,108,3.0,7.0,42,0.00,CLR,,0.00,WeatherDisplay:10.37,2013-05-07 12:10:00,
2013-05-07 13:20:00,70.8,43.2,29.91,East,87,2.0,6.0,37,0.00,CLR,,0.00,WeatherDisplay:10.37,2013-05-07 12:20:00,
2013-05-07 13:30:00,72.0,45.0,29.91,West,267,0.0,10.0,38,0.00,CLR,,0.00,WeatherDisplay:10.37,2013-05-07 12:30:00,
2013-05-07 13:40:00,72.7,43.5,29.91,SE,126,2.0,8.0,35,0.00,CLR,,0.00,WeatherDisplay:10.37,2013-05-07 12:40:00,
2013-05-07 13:50:00,69.0,41.6,29.91,SE,136,3.0,7.0,37,0.00,CLR,,0.00,WeatherDisplay:10.37,2013-05-07 12:50:00,
2013-05-07 14:00:00,70.5,45.6,29.90,East,87,3.0,6.0,41,0.00,CLR,,0.00,WeatherDisplay:10.37,2013-05-07 13:00:00,
2013-05-07 14:10:00,71.9,44.9,29.90,ENE,65,2.0,7.0,38,0.00,CLR,,0.00,WeatherDisplay:10.37,2013-05-07 13:10:00,
2013-05-07 14:20:00,74.1,46.9,29.89,SSE,152,6.0,7.0,38,0.00,CLR,,0.00,WeatherDisplay:10.37,2013-05-07 13:20:00,
2013-05-07 14:30:00,74.5,45.8,29.89,ENE,73,5.0,7.0,36,0.00,CLR,,0.00,WeatherDisplay:10.37,2013-05-07 13:30:00,
2013-05-07 14:40:00,73.9,46.7,29.89,ESE,108,5.0,9.0,38,0.00,CLR,,0.00,WeatherDisplay:10.37,2013-05-07 13:40:00,
2013-05-07 14:50:00,73.3,46.1,29.88,ESE,114,6.0,10.0,38,0.00,CLR,,0.00,WeatherDisplay:10.37,2013-05-07 13:50:00,
2013-05-07 15:00:00,72.5,45.5,29.88,SE,127,6.0,12.0,38,0.00,CLR,,0.00,WeatherDisplay:10.37,2013-05-07 14:00:00,
2013-05-07 15:10:00,70.4,44.3,29.88,East,99,3.0,14.0,39,0.00,CLR,,0.00,WeatherDisplay:10.37,2013-05-07 14:10:00,
2013-05-07 15:20:00,67.6,43.7,29.87,East,85,6.0,11.0,42,0.00,CLR,,0.00,WeatherDisplay:10.37,2013-05-07 14:20:00,
2013-05-07 15:30:00,66.2,46.5,29.87,East,81,8.0,15.0,49,0.00,CLR,,0.00,WeatherDisplay:10.37,2013-05-07 14:30:00,
2013-05-07 15:40:00,66.5,46.2,29.88,East,81,9.0,15.0,48,0.00,CLR,,0.00,WeatherDisplay:10.37,2013-05-07 14:40:00,
2013-05-07 15:50:00,66.9,47.1,29.87,East,94,7.0,13.0,49,0.00,CLR,,0.00,WeatherDisplay:10.37,2013-05-07 14:50:00,
2013-05-07 16:00:00,67.8,46.3,29.87,ESE,104,8.0,12.0,46,0.00,CLR,,0.00,WeatherDisplay:10.37,2013-05-07 15:00:00,
2013-05-07 16:10:00,67.5,44.8,29.86,East,83,8.0,12.0,44,0.00,CLR,,0.00,WeatherDisplay:10.37,2013-05-07 15:10:00,
2013-05-07 16:20:00,67.1,44.4,29.86,East,99,5.0,14.0,44,0.00,CLR,,0.00,WeatherDisplay:10.37,2013-05-07 15:20:00,
2013-05-07 16:30:00,67.7,45.0,29.86,East,98,5.0,12.0,44,0.00,CLR,,0.00,WeatherDisplay:10.37,2013-05-07 15:30:00,
2013-05-07 16:40:00,67.8,44.5,29.85,ESE,102,5.0,9.0,43,0.00,CLR,,0.00,WeatherDisplay:10.37,2013-05-07 15:40:00,
2013-05-07 16:50:00,67.6,44.3,29.85,ESE,117,6.0,14.0,43,0.00,CLR,,0.00,WeatherDisplay:10.37,2013-05-07 15:50:00,
2013-05-07 17:00:00,66.9,44.3,29.85,ESE,111,3.0,10.0,44,0.00,CLR,,0.00,WeatherDisplay:10.37,2013-05-07 16:00:00,
2013-05-07 17:10:00,66.6,44.5,29.84,East,96,6.0,10.0,45,0.00,CLR,,0.00,WeatherDisplay:10.37,2013-05-07 16:10:00,
2013-05-07 17:20:00,65.7,43.7,29.84,East,98,7.0,12.0,45,0.00,CLR,,0.00,WeatherDisplay:10.37,2013-05-07 16:20:00,
2013-05-07 17:30:00,65.4,43.5,29.84,ESE,118,6.0,12.0,45,0.00,CLR,,0.00,WeatherDisplay:10.37,2013-05-07 16:30:00,
2013-05-07 17:40:00,65.7,43.7,29.84,ESE,102,5.0,11.0,45,0.00,CLR,,0.00,WeatherDisplay:10.37,2013-05-07 16:40:00,
2013-05-07 17:50:00,65.8,43.9,29.83,ESE,110,5.0,10.0,45,0.00,CLR,,0.00,WeatherDisplay:10.37,2013-05-07 16:50:00,
2013-05-07 18:00:00,66.7,44.7,29.83,East,94,9.0,13.0,45,0.00,CLR,,0.00,WeatherDisplay:10.37,2013-05-07 17:00:00,
2013-05-07 18:10:00,66.9,44.3,29.83,East,101,9.0,14.0,44,0.00,CLR,,0.00,WeatherDisplay:10.37,2013-05-07 17:10:00,
2013-05-07 18:20:00,65.8,43.9,29.82,ENE,58,13.0,15.0,45,0.00,CLR,,0.00,WeatherDisplay:10.37,2013-05-07 17:20:00,
2013-05-07 18:30:00,65.3,43.4,29.82,East,87,5.0,12.0,45,0.00,CLR,,0.00,WeatherDisplay:10.37,2013-05-07 17:30:00,
2013-05-07 18:40:00,64.6,43.4,29.82,ENE,75,6.0,13.0,46,0.00,CLR,,0.00,WeatherDisplay:10.37,2013-05-07 17:40:00,
2013-05-07 18:50:00,65.7,43.7,29.81,East,89,5.0,10.0,45,0.00,CLR,,0.00,WeatherDisplay:10.37,2013-05-07 17:50:00,
2013-05-07 19:00:00,66.0,44.6,29.82,East,98,3.0,11.0,46,0.00,CLR,,0.00,WeatherDisplay:10.37,2013-05-07 18:00:00,
2013-05-07 19:10:00,66.0,44.6,29.81,ENE,77,7.0,10.0,46,0.00,CLR,,0.00,WeatherDisplay:10.37,2013-05-07 18:10:00,
2013-05-07 19:20:00,66.0,44.6,29.81,East,95,2.0,7.0,46,0.00,CLR,,0.00,WeatherDisplay:10.37,2013-05-07 18:20:00,
2013-05-07 19:30:00,64.2,43.5,29.81,East,88,5.0,7.0,47,0.00,CLR,,0.00,WeatherDisplay:10.37,2013-05-07 18:30:00,
2013-05-07 19:40:00,61.6,42.7,29.81,East,96,6.0,8.0,50,0.00,CLR,,0.00,WeatherDisplay:10.37,2013-05-07 18:40:00,
2013-05-07 19:50:00,59.5,43.3,29.81,East,95,6.0,9.0,55,0.00,CLR,,0.00,WeatherDisplay:10.37,2013-05-07 18:50:00,
2013-05-07 20:00:00,58.3,43.1,29.81,East,95,2.0,7.0,57,0.00,CLR,,0.00,WeatherDisplay:10.37,2013-05-07 19:00:00,
2013-05-07 20:10:00,58.1,43.4,29.81,East,101,3.0,7.0,58,0.00,CLR,,0.00,WeatherDisplay:10.37,2013-05-07 19:10:00,
2013-05-07 20:20:00,58.1,44.3,29.80,East,86,2.0,6.0,60,0.00,CLR,,0.00,WeatherDisplay:10.37,2013-05-07 19:20:00,
2013-05-07 20:30:00,57.9,44.5,29.80,East,91,6.0,7.0,61,0.00,CLR,,0.00,WeatherDisplay:10.37,2013-05-07 19:30:00,
2013-05-07 20:40:00,57.0,43.7,29.80,East,93,5.0,9.0,61,0.00,CLR,,0.00,WeatherDisplay:10.37,2013-05-07 19:40:00,
2013-05-07 20:50:00,56.4,43.1,29.79,East,93,2.0,7.0,61,0.00,CLR,,0.00,WeatherDisplay:10.37,2013-05-07 19:50:00,
2013-05-07 21:00:00,55.8,42.9,29.80,East,95,5.0,10.0,62,0.00,CLR,,0.00,WeatherDisplay:10.37,2013-05-07 20:00:00,
2013-05-07 21:10:00,55.6,43.2,29.79,East,96,1.0,8.0,63,0.00,CLR,,0.00,WeatherDisplay:10.37,2013-05-07 20:10:00,
2013-05-07 21:20:00,55.0,42.7,29.79,East,87,3.0,7.0,63,0.00,CLR,,0.00,WeatherDisplay:10.37,2013-05-07 20:20:00,
2013-05-07 21:30:00,54.7,42.3,29.79,East,100,1.0,7.0,63,0.00,CLR,,0.00,WeatherDisplay:10.37,2013-05-07 20:30:00,
2013-05-07 21:40:00,54.3,42.0,29.79,East,91,2.0,6.0,63,0.00,CLR,,0.00,WeatherDisplay:10.37,2013-05-07 20:40:00,
2013-05-07 21:50:00,54.0,41.7,29.78,East,84,3.0,6.0,63,0.00,CLR,,0.00,WeatherDisplay:10.37,2013-05-07 20:50:00,
2013-05-07 22:00:00,53.8,41.5,29.79,East,92,2.0,5.0,63,0.00,CLR,,0.00,WeatherDisplay:10.37,2013-05-07 21:00:00,
2013-05-07 22:10:00,53.4,40.7,29.79,East,84,3.0,6.0,62,0.00,CLR,,0.00,WeatherDisplay:10.37,2013-05-07 21:10:00,
2013-05-07 22:20:00,53.1,40.4,29.79,East,97,2.0,3.0,62,0.00,CLR,,0.00,WeatherDisplay:10.37,2013-05-07 21:20:00,
2013-05-07 22:30:00,52.7,40.0,29.78,ENE,77,2.0,4.0,62,0.00,CLR,,0.00,WeatherDisplay:10.37,2013-05-07 21:30:00,
2013-05-07 22:40:00,52.3,40.5,29.79,East,96,1.0,3.0,64,0.00,CLR,,0.00,WeatherDisplay:10.37,2013-05-07 21:40:00,
2013-05-07 22:50:00,52.2,40.3,29.79,ESE,113,1.0,4.0,64,0.00,CLR,,0.00,WeatherDisplay:10.37,2013-05-07 21:50:00,
2013-05-07 23:00:00,51.7,39.9,29.78,East,87,2.0,3.0,64,0.00,CLR,,0.00,WeatherDisplay:10.37,2013-05-07 22:00:00,
2013-05-07 23:10:00,51.3,39.5,29.78,East,90,1.0,3.0,64,0.00,CLR,,0.00,WeatherDisplay:10.37,2013-05-07 22:10:00,
2013-05-07 23:20:00,50.9,39.1,29.78,ENE,77,2.0,4.0,64,0.00,CLR,,0.00,WeatherDisplay:10.37,2013-05-07 22:20:00,
2013-05-07 23:30:00,50.7,39.8,29.78,East,90,0.0,4.0,66,0.00,CLR,,0.00,WeatherDisplay:10.37,2013-05-07 22:30:00,
2013-05-07 23:40:00,50.7,39.8,29.77,ENE,73,2.0,3.0,66,0.00,CLR,,0.00,WeatherDisplay:10.37,2013-05-07 22:40:00,
2013-05-07 23:50:00,50.5,40.0,29.77,East,86,3.0,5.0,67,0.00,CLR,,0.00,WeatherDisplay:10.37,2013-05-07 22:50:00,